User: anonymous   Login
Location: Misciano
(43.5000°N, 11.9500°E)
Time: 07:29:59
(UTC+00:00)
Language:

Cosmos 1066 Rocket - Orbit

View from above orbital plane
View from above orbital plane
View from above satellite
View from above satellite

Ground track
Ground track

The orbit data is extracted from the following two-line orbital elements,

1 11166U 78121B   20299.84848770 -.00000050  00000-0 -32641-4 0  9999
2 11166  81.2408  60.4490 0066525  11.7744 348.4965 14.13764369157265
Epoch (UTC): 25 October 2020 20:21:49
Eccentricity: 0.0066525
inclination: 81.2408°
perigee height: 798 km
apogee height: 894 km
right ascension of ascending node: 60.4490°
argument of perigee: 11.7744°
revolutions per day: 14.13764369
mean anomaly at epoch: 348.4965°
orbit number at epoch: 15726

The dashed part of the orbit path shows where the satellite is in the earth's shadow,  

DLR